JES3840 SABE-SACO

Flight info

Callsign JES3840
Flight time N/A
Altitude 38000
Route ATOVO4B ATOVO UW5 ASISA
Aircraft A320/M-SDE3FGHIRWY/LB1

Departure

Time 2026-05-04 18:33
Airport Aeroparque Jorge Newbery (SABE)

Arrival

Time N/A
Airport Ingeniero Aeronáutico Ambrosio L.V. Taravella International Airport (SACO)
Time Latitude Longitude Altitude Speed Heading
2026-05-04 18:08 -34.55757 -58.41323 29 ft 0 kts 35°
2026-05-04 18:22 -34.55769 -58.41333 29 ft 2 kts 26°
2026-05-04 18:23 -34.55783 -58.41341 26 ft 2 kts 19°
2026-05-04 18:23 -34.55794 -58.41343 29 ft 2 kts 347°
2026-05-04 18:23 -34.55804 -58.41339 32 ft 2 kts 314°
2026-05-04 18:23 -34.55812 -58.41329 30 ft 2 kts 307°
2026-05-04 18:24 -34.55817 -58.41321 31 ft 1 kts 302°
2026-05-04 18:24 -34.55817 -58.41319 30 ft 0 kts 302°
2026-05-04 18:29 -34.55811 -58.41332 30 ft 6 kts 302°
2026-05-04 18:29 -34.55770 -58.41404 28 ft 14 kts 304°
2026-05-04 18:29 -34.55734 -58.41477 26 ft 15 kts 298°
2026-05-04 18:29 -34.55758 -58.41578 28 ft 15 kts 217°
2026-05-04 18:30 -34.55884 -58.41401 29 ft 18 kts 117°
2026-05-04 18:30 -34.55945 -58.41268 27 ft 20 kts 126°
2026-05-04 18:30 -34.56034 -58.41126 27 ft 22 kts 127°
2026-05-04 18:31 -34.56131 -58.40969 27 ft 24 kts 124°
2026-05-04 18:31 -34.56172 -58.40838 25 ft 13 kts 97°
2026-05-04 18:31 -34.56224 -58.40736 29 ft 15 kts 124°
2026-05-04 18:31 -34.56288 -58.40622 26 ft 17 kts 124°
2026-05-04 18:32 -34.56361 -58.40528 27 ft 14 kts 138°
2026-05-04 18:32 -34.56441 -58.40440 27 ft 16 kts 138°
2026-05-04 18:32 -34.56529 -58.40390 28 ft 14 kts 203°
2026-05-04 18:32 -34.56534 -58.40487 30 ft 15 kts 303°
2026-05-04 18:33 -34.56400 -58.40725 27 ft 65 kts 304°
2026-05-04 18:33 -34.56032 -58.41384 28 ft 120 kts 304°
2026-05-04 18:33 -34.55495 -58.42335 204 ft 144 kts 306°
2026-05-04 18:33 -34.54924 -58.43355 653 ft 147 kts 306°
2026-05-04 18:34 -34.54340 -58.44352 1167 ft 149 kts 310°
2026-05-04 18:34 -34.53543 -58.45298 1366 ft 175 kts 323°
2026-05-04 18:34 -34.52391 -58.46040 1595 ft 201 kts 340°
2026-05-04 18:34 -34.50929 -58.46367 1978 ft 228 kts 356°
2026-05-04 18:35 -34.49261 -58.46192 2506 ft 249 kts
2026-05-04 18:35 -34.47589 -58.46632 3363 ft 250 kts 327°
2026-05-04 18:35 -34.46368 -58.48142 3802 ft 253 kts 303°
2026-05-04 18:35 -34.45415 -58.49931 3897 ft 252 kts 303°
2026-05-04 18:36 -34.44446 -58.51704 3986 ft 253 kts 304°
2026-05-04 18:36 -34.43436 -58.53469 4840 ft 255 kts 305°
2026-05-04 18:36 -34.42435 -58.55163 5747 ft 258 kts 306°
2026-05-04 18:36 -34.41386 -58.56919 6353 ft 256 kts 306°
2026-05-04 18:37 -34.40337 -58.58672 6948 ft 258 kts 305°
2026-05-04 18:37 -34.39290 -58.60424 7547 ft 262 kts 305°
2026-05-04 18:37 -34.38215 -58.62226 8162 ft 266 kts 305°
2026-05-04 18:37 -34.37126 -58.64054 8840 ft 270 kts 304°
2026-05-04 18:38 -34.36018 -58.65920 9605 ft 276 kts 304°
2026-05-04 18:38 -34.34881 -58.67839 10179 ft 288 kts 304°
2026-05-04 18:38 -34.33664 -58.69894 10418 ft 311 kts 304°
2026-05-04 18:38 -34.32379 -58.72057 10953 ft 320 kts 304°
2026-05-04 18:39 -34.31070 -58.74249 11685 ft 322 kts 303°
2026-05-04 18:39 -34.29757 -58.76446 12494 ft 322 kts 302°
2026-05-04 18:39 -34.28443 -58.78643 13300 ft 322 kts 302°
2026-05-04 18:39 -34.27127 -58.80846 14059 ft 322 kts 301°
2026-05-04 18:40 -34.25829 -58.83022 14683 ft 324 kts 301°
2026-05-04 18:40 -34.24506 -58.85244 15293 ft 327 kts 301°
2026-05-04 18:40 -34.23173 -58.87483 15887 ft 330 kts 301°
2026-05-04 18:40 -34.21824 -58.89743 16494 ft 333 kts 301°
2026-05-04 18:41 -34.20460 -58.92023 17102 ft 336 kts 300°
2026-05-04 18:41 -34.19083 -58.94322 17668 ft 340 kts 300°
2026-05-04 18:41 -34.17689 -58.96652 18229 ft 344 kts 300°
2026-05-04 18:41 -34.16277 -58.99008 18742 ft 347 kts 300°
2026-05-04 18:42 -34.14851 -59.01389 19279 ft 350 kts 300°
2026-05-04 18:42 -34.13419 -59.03777 19842 ft 353 kts 300°
2026-05-04 18:42 -34.11974 -59.06183 20390 ft 355 kts 300°
2026-05-04 18:42 -34.10515 -59.08607 20916 ft 358 kts 300°
2026-05-04 18:43 -34.09069 -59.11010 21399 ft 360 kts 300°
2026-05-04 18:43 -34.07591 -59.13465 21907 ft 362 kts 300°
2026-05-04 18:43 -34.06103 -59.15938 22390 ft 365 kts 300°
2026-05-04 18:43 -34.04606 -59.18423 22884 ft 368 kts 300°
2026-05-04 18:44 -34.03099 -59.20929 23342 ft 370 kts 300°
2026-05-04 18:44 -34.02096 -59.22599 23624 ft 372 kts 300°
2026-05-04 18:44 -34.00048 -59.25998 24160 ft 376 kts 300°
2026-05-04 18:44 -33.98502 -59.28555 24564 ft 378 kts 300°
2026-05-04 18:45 -33.96948 -59.31119 24969 ft 380 kts 300°
2026-05-04 18:45 -33.95382 -59.33700 25378 ft 382 kts 300°
2026-05-04 18:45 -33.93807 -59.36293 25776 ft 384 kts 300°
2026-05-04 18:45 -33.92223 -59.38906 26168 ft 387 kts 300°
2026-05-04 18:46 -33.90636 -59.41528 26558 ft 389 kts 299°
2026-05-04 18:46 -33.89037 -59.44172 26947 ft 391 kts 300°
2026-05-04 18:46 -33.87446 -59.46793 27295 ft 394 kts 300°
2026-05-04 18:46 -33.85823 -59.49460 27656 ft 396 kts 300°
2026-05-04 18:47 -33.84191 -59.52141 28030 ft 398 kts 300°
2026-05-04 18:47 -33.82549 -59.54838 28405 ft 401 kts 300°
2026-05-04 18:47 -33.80896 -59.57548 28780 ft 403 kts 300°
2026-05-04 18:47 -33.79234 -59.60273 29150 ft 405 kts 300°
2026-05-04 18:48 -33.77623 -59.62913 29529 ft 407 kts 300°
2026-05-04 18:48 -33.75952 -59.65645 29717 ft 403 kts 300°
2026-05-04 18:48 -33.74299 -59.68340 29870 ft 399 kts 300°
2026-05-04 18:49 -33.71042 -59.73663 30083 ft 391 kts 299°
2026-05-04 18:49 -33.69460 -59.76253 30209 ft 387 kts 299°
2026-05-04 18:49 -33.67868 -59.78853 30320 ft 387 kts 299°
2026-05-04 18:49 -33.66257 -59.81489 30452 ft 395 kts 299°
2026-05-04 18:50 -33.64617 -59.84174 30570 ft 403 kts 299°
2026-05-04 18:50 -33.62946 -59.86910 30698 ft 410 kts 300°
2026-05-04 18:50 -33.61247 -59.89682 30930 ft 414 kts 300°
2026-05-04 18:50 -33.59534 -59.92458 31309 ft 414 kts 300°
2026-05-04 18:51 -33.57823 -59.95218 31791 ft 411 kts 300°
2026-05-04 18:51 -33.56153 -59.97914 32239 ft 409 kts 300°
2026-05-04 18:51 -33.54440 -60.00687 32711 ft 407 kts 300°
2026-05-04 18:51 -33.52764 -60.03407 33205 ft 405 kts 299°
2026-05-04 18:52 -33.51117 -60.06079 33705 ft 403 kts 299°
2026-05-04 18:52 -33.49458 -60.08774 34163 ft 400 kts 299°
2026-05-04 18:52 -33.47810 -60.11446 34568 ft 399 kts 299°
2026-05-04 18:52 -33.46162 -60.14111 34937 ft 398 kts 299°
2026-05-04 18:53 -33.44515 -60.16771 35288 ft 397 kts 299°
2026-05-04 18:53 -33.42871 -60.19426 35636 ft 396 kts 299°
2026-05-04 18:53 -33.41233 -60.22068 35975 ft 395 kts 299°
2026-05-04 18:53 -33.39596 -60.24706 36265 ft 395 kts 299°
2026-05-04 18:54 -33.38020 -60.27245 36558 ft 394 kts 300°
2026-05-04 18:54 -33.36329 -60.29965 36880 ft 394 kts 299°
2026-05-04 18:54 -33.34694 -60.32590 37192 ft 393 kts 300°
2026-05-04 18:54 -33.33063 -60.35205 37496 ft 392 kts 299°
2026-05-04 18:55 -33.31433 -60.37822 37783 ft 392 kts 299°
2026-05-04 18:55 -33.28174 -60.43066 37897 ft 393 kts 299°
2026-05-04 18:55 -33.26564 -60.45650 37900 ft 393 kts 299°
2026-05-04 18:56 -33.23294 -60.50886 37894 ft 393 kts 300°
2026-05-04 18:56 -33.20017 -60.56113 37900 ft 393 kts 300°
2026-05-04 18:57 -33.16748 -60.61334 37896 ft 392 kts 300°
2026-05-04 18:57 -33.13480 -60.66557 37895 ft 393 kts 300°
2026-05-04 18:58 -33.10200 -60.71780 37898 ft 393 kts 300°
2026-05-04 18:58 -33.06916 -60.76997 37882 ft 393 kts 300°
2026-05-04 18:59 -33.03654 -60.82181 37896 ft 393 kts 300°
2026-05-04 18:59 -33.00376 -60.87384 37907 ft 393 kts 300°
2026-05-04 19:00 -32.97093 -60.92582 37911 ft 392 kts 300°
2026-05-04 19:00 -32.93810 -60.97770 37908 ft 392 kts 300°
2026-05-04 19:01 -32.90524 -61.02948 37908 ft 392 kts 300°
2026-05-04 19:01 -32.87241 -61.08121 37913 ft 392 kts 300°
2026-05-04 19:02 -32.83957 -61.13290 37905 ft 391 kts 300°
2026-05-04 19:02 -32.80682 -61.18443 37904 ft 390 kts 300°
2026-05-04 19:03 -32.77407 -61.23588 37908 ft 390 kts 300°
2026-05-04 19:03 -32.74148 -61.28701 37878 ft 389 kts 300°
2026-05-04 19:04 -32.70871 -61.33832 37898 ft 390 kts 300°
2026-05-04 19:04 -32.67592 -61.38963 37906 ft 389 kts 300°
2026-05-04 19:05 -32.64315 -61.44084 37901 ft 389 kts 300°
2026-05-04 19:05 -32.61055 -61.49161 37899 ft 389 kts 300°
2026-05-04 19:06 -32.57772 -61.54259 37908 ft 389 kts 300°
2026-05-04 19:06 -32.54504 -61.59338 37881 ft 388 kts 300°
2026-05-04 19:07 -32.51226 -61.64436 37894 ft 388 kts 300°
2026-05-04 19:07 -32.47968 -61.69502 37893 ft 388 kts 300°
2026-05-04 19:08 -32.44684 -61.74592 37897 ft 388 kts 300°
2026-05-04 19:08 -32.41414 -61.79640 37899 ft 388 kts 300°
2026-05-04 19:09 -32.38221 -61.84564 37871 ft 388 kts 300°